Location: Newark
(41.6500°N, 71.4833°W)
Time: 15:55:23
(UTC+00:00)

deb Explorer IX - Pass Details

Date: 27 January 2020
Orbit: 549 x 1099 km, 38.8° (Epoch: 17 February)

Event Time Altitude Azimuth Distance (km) Brightness Sun altitude
Rises 07:10:37 0° 279° (W) 3,909 - -53.7°
Reaches altitude 10° 07:13:45 10° 269° (W) 2,939 - -53.2°
Maximum altitude 07:19:52 30° 212° (SSW) 1,779 - -52.1°
Drops below altitude 10° 07:25:36 10° 154° (SSE) 2,740 - -51.2°
Sets 07:28:26 0° 143° (SE) 3,607 - -50.7°
